Location: Courcelles
(49.2596°N, 1.7419°E)
Time: 07:43:19
(UTC+00:00)

BREEZE-M DEB (TANK) - Pass Details

Date: 17 November 2025
Orbit: 304 x 15918 km, 49.4° (Epoch: 06 December)

Event Time Altitude Azimuth Distance (km) Brightness Sun altitude
Rises 17:20:59 0° 237° (WSW) 2,023 6.8 -11.7°
Reaches altitude 10° 17:22:25 10° 230° (SW) 1,306 5.4 -11.9°
Maximum altitude 17:24:46 50° 152° (SSE) 622 2.5 -12.3°
Enters shadow 17:27:57 18° 81° (E) 1,890 4.4 -12.8°
